Miscellaneous Local Product
Issued by NWS Hastings, NE

Home | Current Version | Previous Version | Graphics & Text | Print | Product List | Glossary On
Versions: 1 2 3 4 5 6 7 8 9 10 11 12 13 14 15 16 17 18 19 20 21 22 23 24 25 26 27 28 29 30 31 32 33 34 35 36 37 38 39 40 41 42 43 44 45 46 47 48 49 50
000
AXUS43 KGID 211002
MISGRI

GID CWA HOURLY WEATHER ROUNDUP
NATIONAL WEATHER SERVICE HASTINGS NE
500 AM CDT MON APR 21 2014

NOTE: "FAIR" INDICATES FEW OR NO CLOUDS BELOW 12,000 FEET WITH NO
SIGNIFICANT WEATHER AND/OR OBSTRUCTIONS TO VISIBILITY.

...SOUTH CENTRAL NEBRASKA...

CITY           SKY/WX    TMP DP  RH WIND       PRES   REMARKS
GRAND ISLAND   CLOUDY    59  54  83 S6        29.96S
HASTINGS       CLOUDY    59  53  80 SW6       29.97F
KEARNEY        CLOUDY    57  54  88 W8        29.99R
ORD            MOCLDY    53  42  66 N15       30.00R
YORK           LGT RAIN  57  55  94 SW9       29.96R
AURORA         LGT RAIN  58  56  94 SW9       29.97S
LEXINGTON      MOCLDY    55  45  68 N9        30.05R
HOLDREGE       CLOUDY    55  52  90 CALM      30.02S
HEBRON         CLOUDY    59  55  86 N14       29.97F

...NEBRASKA PANHANDLE...

CITY           SKY/WX    TMP DP  RH WIND       PRES   REMARKS
CHADRON        CLEAR     35  29  78 CALM      30.21R
ALLIANCE       PTCLDY    36  28  73 NW6       30.20R WCI  31
SCOTTSBLUFF    MOCLDY    49  25  39 CALM      30.24R
SIDNEY         MOCLDY    46  28  49 N15       30.20R

...WESTERN AND NORTH CENTRAL NEBRASKA...

CITY           SKY/WX    TMP DP  RH WIND       PRES   REMARKS
VALENTINE      CLEAR     48  27  44 N8        30.13R
AINSWORTH      CLEAR     48  32  53 N10       30.10R
ONEILL         PTCLDY    54  32  42 N16G22    30.03R
BROKEN BOW     PTCLDY    50  36  58 N20       30.04R
IMPERIAL       CLEAR     47  33  58 N9        30.11R
NORTH PLATTE   CLEAR     52  31  44 N21G28    30.06R
MCCOOK         CLEAR     53  44  71 N15       30.04R

...EASTERN NEBRASKA...

CITY           SKY/WX    TMP DP  RH WIND       PRES   REMARKS
NORFOLK        CLOUDY    57  51  80 W7        29.94R
SO SIOUX CITY  CLOUDY    58  54  86 S6        29.91S
TEKAMAH        CLOUDY    61  56  83 S10       29.91F
COLUMBUS       CLOUDY    61  50  67 W10       29.97R
ALBION         CLOUDY    57  48  70 NW12      29.96S
OMAHA EPPLEY   LGT RAIN  61  58  90 SE5       29.93F
OFFUTT AFB     CLOUDY    57  57 100 E3        29.93F
MILLARD        CLOUDY    62  56  81 CALM      29.93F
LINCOLN        CLOUDY    59  56  89 S8        29.93F FOG
NEBRASKA CITY  MOCLDY    60  59  96 SW7       29.94S
BEATRICE       CLOUDY    59  55  88 W5        29.95F
FALLS CITY     MOCLDY    62  56  80 S7        29.94S

...NORTHERN KANSAS...

CITY           SKY/WX    TMP DP  RH WIND       PRES   REMARKS
GOODLAND       CLEAR     48  43  82 N15       30.07R
HILL CITY      MOCLDY    54  51  90 NE7       30.00R
SMITH CENTER   CLOUDY    55  54  94 NE9       30.05R
BELOIT         CLOUDY    57  57 100 N14G21    30.01R
HAYS           MOCLDY    54  52  94 N7        29.98R
RUSSELL        PTCLDY    52  49  89 SW6       29.95R
CONCORDIA      CLOUDY    58  55  90 NW7       30.00R
SALINA         PTCLDY    53  50  89 S6        29.97R
TOPEKA         MOCLDY    61  57  87 S5        29.97F



USA.gov is the U.S. government's official web portal to all federal, state and local government web resources and services.